STARLINK-32755, 62842

Orbit data source: Space-Track

STARLINK-32755, 62842 is a payload satellite owned by SpaceX/Seattle (US) in LEO that was launched on Mon, 27 Jan 2025 UTC via an FALCON 9 launch vehicle from the Air Force Eastern Test Range (AFETR). Payload-class satellites include a variety of spacecraft equipped with specific instruments for various scientific and technological missions. These include communications satellites like Starlink; space stations such as the ISS; scientific satellites like the Hubble; Earth observation satellites from companies like Planet Labs, Umbra, and HawkEye 360; GPS; miniature CubeSats for education and research; and military/defense satellites.

Loading next visibility...
Identifier
62842, 2025-019P
Orbit
LEO
Country
Flag of USUS
Related business
Manufacturer
SpaceX/Seattle
Mission
Operational Commercial Communications
Bus & Motor
STARLINK V2M, Unknown motor
Mass
730 kg wet, ~700 kg dry
Launch date (UTC)
2025-01-27 (1 year ago)
Launch vehicle
FALCON 9
Launch site
Air Force Eastern Test Range (AFETR)
Object type
Payload
Rocket body
Debris
Shape & HBR
Box + 2 Pan, 17.7 m
Radar Cross Section
33.884 m², Large (>1 m²)

Expand to show TLE details & history
Last TLE update: 13 hours ago

TLE from 13 hours ago
0 STARLINK-32755
1 62842U 25019P   26034.95878496  .00037905  00000-0  13795-2 0  9991
2 62842  42.9987 272.4323 0001691 279.2798  80.7863 15.27588619 57171
Epoch: 2026-02-03T23:00Z
TLE epoch observation values (Epoch: 2026-02-03T23:00:39.020Z)
Latitude
0.00002°
Longitude
153.1375°
Altitude
482.613 km
Speed
7.626 km/s
True Right ascension
18h 09m 43s
True Declination
0° 00' 00"
Sunlit
Object was in daylight at epoch
Visualization orbit readout
Latitude
Unknown
Longitude
Unknown
Altitude
Unknown
Speed
Unknown
Apparent Right ascension
Unknown
Apparent Declination
Unknown
Sunlit
N/A
Visualization observer readout
Local Sidereal Time
14:00:26
Azimuth
Unknown
Elevation
Unknown
Doppler factor
Unknown
Orbital elements
Apogee altitude
486.129 km
Perigee altitude
483.808 km
Semi-major axis
6,863.106 km
Eccentricity
0.00017
Inclination
42.9987°
RAAN
272.4323°
Arg. of periapsis
279.2798°
True anomaly
80.80543°
Mean anomaly
80.7863°
Eccentric anomaly
80.79586°
Mean motion
3.81735 °/min
Orbital period
94.31 mins
BSTAR
0.0013795
Loading maneuver chart data...
Computing Atmospheric mass density...
Loading historical data...
Loading historical data...
Loading historical data...
Loading historical data...
Loading historical data...
Loading historical data...
Loading historical data...

Documentation

Showing up to 5 results
|